Location: Antioch Baptist Church
(32.6696°N, 85.7327°W)
Time: 12:27:44
(UTC+00:00)

Cosmos 1782 Rocket - Pass Details

Date: 14 July 2020
Orbit: 606 x 633 km, 82.5° (Epoch: 08 August)

Event Time Altitude Azimuth Distance (km) Brightness Sun altitude
Exits shadow 09:21:45 26° 213° (SSW) 1,237 4.5 -15.7°
Maximum altitude 09:24:00 52° 278° (W) 782 3.8 -15.3°
Drops below altitude 10° 09:28:20 10° 355° (N) 2,001 6.6 -14.6°
Sets 09:30:37 0° 1° (N) 2,907 7.6 -14.2°
